Location: City of Moscow
(46.7306°N, 116.9989°W)
Time: 05:12:31
(UTC+00:00)

SL-4 R/B - Pass Details

Date: 11 December 2025
Orbit: 386 x 521 km, 51.6° (Epoch: 13 January)

Event Time Altitude Azimuth Distance (km) Brightness Sun altitude
Exits shadow 12:49:36 26° 73° (ENE) 815 3.5 -25.2°
Drops below altitude 10° 12:51:18 10° 90° (E) 1,431 5.2 -24.9°
Sets 12:53:23 0° 97° (E) 2,274 6.6 -24.6°
